STARLINK-31085, 58609

Orbit data source: Space-Track

STARLINK-31085, 58609 is a payload satellite owned by SpaceX/Seattle (US) in LEO that was launched on Tue, 19 Dec 2023 UTC via an FALCON 9 launch vehicle from the Air Force Eastern Test Range (AFETR). Payload-class satellites include a variety of spacecraft equipped with specific instruments for various scientific and technological missions. These include communications satellites like Starlink; space stations such as the ISS; scientific satellites like the Hubble; Earth observation satellites from companies like Planet Labs, Umbra, and HawkEye 360; GPS; miniature CubeSats for education and research; and military/defense satellites.

Loading next visibility...
Identifier
58609, 2023-200W
Orbit
LEO
Country
Flag of USUS
Related business
Manufacturer
SpaceX/Seattle
Mission
Operational Commercial Communications
Bus & Motor
STARLINK V2M, Unknown motor
Mass
730 kg wet, ~700 kg dry
Launch date (UTC)
2023-12-19 (3 years ago)
Launch vehicle
FALCON 9
Launch site
Air Force Eastern Test Range (AFETR)
Object type
Payload
Rocket body
Debris
Shape & HBR
Box + 2 Pan, 17.7 m
Radar Cross Section
33.884 m², Large (>1 m²)

Expand to show TLE details & history
Last TLE update: 2 days ago

TLE from 2 days ago
0 STARLINK-31085
1 58609U 23200W   26171.37346229 -.00002937  00000-0 -97138-4 0  9993
2 58609  43.0048 309.0593 0002282 262.3708  97.6885 15.27604863139312
Epoch: 2026-06-20T08:57Z
TLE epoch observation values (Epoch: 2026-06-20T08:57:47.141Z)
Latitude
-0.00001°
Longitude
-93.97614°
Altitude
482.96 km
Speed
7.626 km/s
True Right ascension
20h 36m 14s
True Declination
0° 00' 00"
Sunlit
Object was in full shadow at epoch
Visualization orbit readout
Latitude
Unknown
Longitude
Unknown
Altitude
Unknown
Speed
Unknown
Apparent Right ascension
Unknown
Apparent Declination
Unknown
Sunlit
N/A
Visualization observer readout
Local Sidereal Time
21:34:29
Azimuth
Unknown
Elevation
Unknown
Doppler factor
Unknown
Orbital elements
Apogee altitude
486.485 km
Perigee altitude
483.353 km
Semi-major axis
6,863.056 km
Eccentricity
0.00023
Inclination
43.0048°
RAAN
309.0593°
Arg. of periapsis
262.3708°
True anomaly
97.71441°
Mean anomaly
97.6885°
Eccentric anomaly
97.70146°
Mean motion
3.81739 °/min
Orbital period
94.31 mins
BSTAR
-0.000097138
Loading maneuver chart data...
Computing Atmospheric mass density...
Loading historical data...
Loading historical data...
Loading historical data...
Loading historical data...
Loading historical data...
Loading historical data...
Loading historical data...

Documentation

Showing up to 5 results
|